Location: Newark
(44.1667°N, 8.2500°E)
Time: 11:32:39
(UTC+00:00)

Vanguard 2 - Pass Details

Date: 13 December 2019
Orbit: 553 x 2938 km, 32.9° (Epoch: 18 January)

Event Time Altitude Azimuth Distance (km) Brightness Sun altitude
Exits shadow 00:40:39 28° 107° (ESE) 4,402 11.3 -63.3°
Drops below altitude 10° 00:47:50 10° 94° (E) 5,725 12.1 -62.4°
Sets 00:52:21 0° 89° (E) 6,635 12.6 -61.8°
